Location: *
(58.7167°N, 26.1833°E)
Time: 13:50:07
(UTC+00:00)

Iridium 2 - Pass Details

Date: 25 August 2019
Orbit: 507 x 516 km, 85.5° (Epoch: 19 September)

Event Time Altitude Azimuth Distance (km) Brightness Sun altitude
Exits shadow 18:38:16 - 172° (S) 2,486 6.7 -7.8°
Reaches altitude 10° 18:40:06 10° 168° (SSE) 1,725 5.9 -8.0°
Maximum altitude 18:43:47 53° 92° (E) 633 3.8 -8.4°
Drops below altitude 10° 18:47:29 10° 15° (NNE) 1,741 6.7 -8.8°
Sets 18:49:39 0° 10° (N) 2,633 7.7 -9.0°
